Orbital Elements at Epoch 2459200.5 (2020-Dec-17.0) TDB
Reference: JPL 24 (heliocentric ecliptic J2000)
Element | Value | Uncertainty (1-sigma) | Units |
e | .1892071685782352 | 2.871e-08 | |
a | 2.586001765838084 | 1.2765e-08 | au |
q | 2.096711693785544 | 7.691e-08 | au |
i | 7.11429208194816 | 3.2731e-06 | deg |
node | 218.4140702000234 | 3.5484e-05 | deg |
peri | 183.2271127654883 | 3.8276e-05 | deg |
M | 314.1205907918088 | 1.737e-05 | deg |
tp | 2459394.078432385419 (2021-Jun-28.57843239) | 7.4307e-05 | TDB |
period | 1518.943614607595 4.16 | 1.1247e-05 3.079e-08 | d yr |
n | .2370068227272563 | 1.7549e-09 | deg/d |
Q | 3.075291837890624 | 1.518e-08 | au |
|
| | Orbit Determination Parameters
Additional Information
|